This is the latest recevied weather packets stored in our database for station/object N7ZAP. If no packets are shown the sender has not sent any weather packets the latest 10 day(s).
| Time | Temp. | Humidity | Pressure | Rain* | Wind** | Luminosity | Snow |
|---|---|---|---|---|---|---|---|
| 1777392004 | 18.89° C | 17% | 1020.5 hPa | 0 mm | - | - | - |
| 1777391699 | 18.33° C | 19% | 1020.5 hPa | 0 mm | - | - | - |
| 1777391395 | 18.33° C | 18% | 1020.2 hPa | 0 mm | - | - | - |
| 1777391092 | 18.33° C | 18% | 1020.6 hPa | 0 mm | - | - | - |
| 1777390788 | 17.78° C | 20% | 1020.5 hPa | 0 mm | - | - | - |
| 1777390485 | 17.78° C | 20% | 1020.4 hPa | 0 mm | - | - | - |
| 1777390181 | 17.78° C | 19% | 1020.5 hPa | 0 mm | - | - | - |
| 1777389878 | 17.78° C | 19% | 1020.5 hPa | 0 mm | - | - | - |
| 1777389575 | 17.78° C | 20% | 1020.4 hPa | 0 mm | - | - | - |
| 1777389271 | 17.22° C | 19% | 1020.4 hPa | 0 mm | - | - | - |
| 1777388970 | 17.22° C | 20% | 1020.4 hPa | 0 mm | - | - | - |
| 1777388666 | 17.22° C | 19% | 1020.4 hPa | 0 mm | - | - | - |
| 1777388363 | 16.67° C | 22% | 1020.4 hPa | 0 mm | - | - | - |
| 1777388062 | 16.67° C | 20% | 1020.4 hPa | 0 mm | - | - | - |
| 1777387759 | 16.11° C | 19% | 1020.2 hPa | 0 mm | - | - | - |
| 1777387455 | 16.11° C | 19% | 1020.2 hPa | 0 mm | - | - | - |
| 1777387150 | 15.56° C | 19% | 1020.3 hPa | 0 mm | - | - | - |
| 1777386846 | 15° C | 20% | 1020.4 hPa | 0 mm | - | - | - |
| 1777386543 | 14.44° C | 21% | 1020.4 hPa | 0 mm | - | - | - |
| 1777386240 | 13.89° C | 23% | 1020.4 hPa | 0 mm | - | - | - |
| 1777385938 | 12.78° C | 23% | 1020.3 hPa | 0 mm | - | - | - |
| 1777385634 | 12.78° C | 25% | 1020.1 hPa | 0 mm | - | - | - |
| 1777385331 | 12.22° C | 25% | 1020.3 hPa | 0 mm | - | - | - |
| 1777385027 | 11.11° C | 26% | 1019.8 hPa | 0 mm | - | - | - |
| 1777384725 | 10.56° C | 26% | 1020.2 hPa | 0 mm | - | - | - |
* Rain latest hour (hover to see other rain measurements)
** Current wind speed in m/s (hover to see current wind gust speed)